[[{"header":{"parameterUnit":"m.s-1","parameterCategory":1,"la1":30.2991,"la2":30.254,"lo1":-89.0895,"lo2":-89.0444,"dy":0.0017,"dx":0.0017,"nx":28,"ny":28,"refTime":"2024-08-31T09:00:00:Z","depth":0,"parameterNumber":2,"parameterNumberName":"U-component_of_WINDS"},"data":[0,0,0,0,0,0,0,0,0,0,0,0,0,0,0,0,0,0,0,0,0,0,0,0,0,0,0,0,0,0,0,0,0,0,0,0,0,0,0,0,0,0,0,0,0,0,0,0,0,0,0,0,0,0,0,0,0,0,-3.1313,-3.1313,0,-3.1333,-3.1333,-3.1333,-3.1236,-3.1234,-3.1231,-3.1228,-3.1249,-3.1252,-3.1255,0,0,0,0,0,0,0,0,0,0,0,0,0,-3.1189,-3.1192,-3.1312,-3.1313,-3.1313,-3.1333,-3.1333,-3.1333,-3.1237,-3.1233,-3.123,-3.1227,-3.1248,-3.1252,-3.1256,0,0,0,0,0,0,0,0,0,0,0,0,0,-3.123,-3.1193,-3.1312,-3.1267,-3.1263,-3.1333,-3.1333,-3.1333,-3.1238,-3.1233,-3.1229,-3.1225,-3.1247,-3.1252,-3.1256,-3.137,0,0,-3.1271,-3.1273,0,0,0,0,0,0,0,0,-3.1228,-3.1234,-3.1274,-3.1271,-3.1266,-3.1278,-3.1297,-3.1346,-3.1239,-3.1247,-3.1228,-3.1223,-3.1262,-3.1265,-3.1278,-3.1371,-3.1372,-3.1271,-3.1274,-3.1276,-3.1278,0,0,0,0,0,0,0,-3.1225,-3.1233,-3.132,-3.1274,-3.127,-3.1246,-3.1247,-3.1306,-3.1278,-3.1246,-3.1239,-3.1243,-3.1259,-3.1274,-3.1278,-3.1372,-3.1271,-3.1275,-3.1278,-3.128,-3.1558,-3.1562,0,0,0,0,0,0,-3.1228,-3.1231,-3.132,-3.1321,-3.1236,-3.1251,-3.1253,-3.1278,-3.1277,-3.1273,-3.1247,-3.1239,-3.1268,-3.1273,-3.1279,-3.1411,-3.1276,-3.1281,-3.1283,-3.1553,-3.1559,-3.1564,0,0,0,0,0,0,-3.1226,-3.1237,-3.1319,-3.1274,-3.1283,-3.1258,-3.1288,-3.1281,-3.1296,-3.1278,-3.1272,-3.1267,-3.1265,-3.1272,-3.1348,-3.141,-3.1283,-3.1287,-3.1548,-3.1555,-3.1561,-3.1677,0,0,0,0,0,0,-3.1223,-3.1237,-3.128,-3.1276,-3.1286,-3.1388,-3.1292,-3.1284,-3.1304,-3.1294,-3.1295,-3.1291,-3.1262,-3.1341,-3.1353,-3.1414,-3.1291,-3.1542,-3.1551,-3.1559,-3.1667,-3.1687,-3.1703,0,0,0,0,0,-3.1219,-3.1312,-3.1283,-3.1294,-3.1339,-3.1392,-3.1398,-3.1362,-3.131,-3.1353,-3.1341,-3.1291,-3.1402,-3.135,-3.1362,-3.1426,-3.1538,-3.1549,-3.1559,-3.1659,-3.1683,-3.1703,0,0,0,0,0,0,-3.1324,-3.1311,-3.1278,-3.1373,-3.1384,-3.1376,-3.1429,-3.1389,-3.1415,-3.1404,-3.1359,-3.136,-3.1444,-3.1442,-3.1385,-3.1535,-3.1461,-3.1474,-3.1533,-3.1556,-3.1573,-3.1572,-3.1295,0,0,0,0,0,-3.1359,-3.1403,-3.1389,-3.1474,-3.1481,-3.1454,-3.1476,-3.1448,-3.1458,-3.1462,-3.1456,-3.1468,-3.1505,-3.153,-3.1563,-3.1667,-3.1665,-3.1717,-3.1735,-3.175,-3.1761,-3.1815,-3.1837,-3.1597,-3.1597,-3.1597,0,0,-3.143,-3.1428,-3.1459,-3.1495,-3.15,-3.1547,-3.1459,-3.1512,-3.1546,-3.147,-3.1541,-3.1537,-3.1547,-3.1637,-3.1676,-3.1638,-3.1827,-3.1763,-3.1775,-3.1778,-3.1828,-3.1851,-3.1871,-3.1604,-3.1603,-3.1602,0,0,-3.1583,-3.1587,-3.1658,-3.1665,-3.1674,-3.1656,-3.1673,-3.167,-3.1664,-3.1735,-3.1679,-3.1718,-3.1784,-3.1793,-3.1806,-3.1962,-3.1917,-3.1974,-3.2068,-3.2121,-3.214,-3.2156,-3.2211,-3.2232,-3.1986,-3.1986,-3.1987,0,-3.1671,-3.1739,-3.1699,-3.1756,-3.1773,-3.1706,-3.1777,-3.1786,-3.1806,-3.1819,-3.1777,-3.1856,-3.1858,-3.1949,-3.1987,-3.2,-3.2018,-3.1974,-3.214,-3.2157,-3.2171,-3.2223,-3.2244,-3.1993,-3.1992,-3.1992,-3.1991,0,-3.1845,-3.1893,-3.1949,-3.197,-3.1993,-3.2057,-3.2027,-3.2055,-3.2025,-3.2011,-3.2083,-3.2083,-3.2114,-3.2134,-3.2105,-3.222,-3.2196,-3.2148,-3.2072,-3.2202,-3.225,-3.2269,-3.2003,-3.2001,-3.1998,-3.1997,0,0,-3.2066,-3.2063,-3.2085,-3.2092,-3.2098,-3.2134,-3.2194,-3.2225,-3.225,-3.2266,-3.2315,-3.2371,-3.2326,-3.2341,-3.2313,-3.2359,-3.2482,-3.2304,-3.2304,-3.2337,-3.2608,-3.2644,-3.2667,-3.2452,-3.2456,-3.2459,-3.2607,0,-3.2216,-3.2318,-3.2284,-3.2388,-3.2431,-3.2368,-3.2421,-3.243,-3.2418,-3.2453,-3.244,-3.248,-3.2418,-3.2427,-3.247,-3.2458,-3.2535,-3.2447,-3.2497,-3.2499,-3.2495,-3.2693,-3.2731,-3.287,-3.2625,-3.2628,-3.2631,0,-3.2404,-3.2427,-3.2536,-3.2532,-3.2549,-3.2597,-3.2622,-3.2656,-3.2664,-3.2653,-3.267,-3.2631,-3.2689,-3.2614,-3.2693,-3.2633,-3.2652,-3.2649,-3.2654,-3.2656,-3.2572,-3.27,-3.2914,-3.2935,-3.266,-3.2658,-3.2656,0,-3.2553,-3.2611,-3.2683,-3.2692,-3.2691,-3.2725,-3.2726,-3.2731,-3.2751,-3.2773,-3.2785,-3.2814,-3.283,-3.2852,-3.2822,-3.277,-3.2906,-3.2828,-3.2897,-3.2898,-3.2928,-3.2927,-3.3148,-3.2942,-3.2942,-3.2941,-3.2941,0,-3.2723,-3.2792,-3.275,-3.2794,-3.2869,-3.2829,-3.2904,-3.2898,-3.2902,-3.2944,-3.2891,-3.2931,-3.2889,-3.2926,-3.2903,-3.2971,-3.2979,-3.2971,-3.2964,-3.2975,-3.2976,-3.2986,-3.2975,-3.2947,-3.2946,-3.2945,-3.2944,0,-3.2902,-3.2877,-3.2951,-3.2943,-3.2943,-3.2998,-3.2991,-3.3032,-3.3016,-3.307,-3.308,-3.3056,-3.3096,-3.3068,-3.3108,-3.3092,-3.3182,-3.3162,-3.318,-3.3174,-3.3244,-3.3237,-3.3478,-3.3508,-3.3284,-3.3287,-3.3288,0,-3.3012,-3.3063,-3.306,-3.3084,-3.3089,-3.3128,-3.3148,-3.3111,-3.3134,-3.3147,-3.3186,-3.3221,-3.3247,-3.3314,-3.33,-3.333,-3.331,-3.3392,-3.3314,-3.3323,-3.331,-3.3306,-3.3311,-3.3408,-3.341,-3.3412,-3.3414,0,-3.3209,-3.3194,-3.3225,-3.3252,-3.3277,-3.3297,-3.3312,-3.3335,-3.3296,-3.3325,-3.3365,-3.3386,-3.3426,-3.3462,-3.3486,-3.3487,-3.3444,-3.3439,-3.3456,-3.3468,-3.3475,-3.3471,-3.3222,-3.3433,-3.3431,-3.343,-3.3429,-3.3428,-3.3355,-3.3398,-3.3402,-3.3438,-3.3446,-3.3461,-3.3498,-3.3487,-3.352,-3.355,-3.3526,-3.3573,-3.3579,-3.3608,-3.3614,-3.365,-3.3617,-3.3642,-3.3648,-3.3655,-3.3664,-3.3471,-3.3655,-3.3654,-3.3654,-3.3653,-3.3653,0,-3.3549,-3.3549,-3.3582,-3.3605,-3.3633,-3.3591,-3.3605,-3.3632,-3.3674,-3.3684,-3.371,-3.3756,-3.379,-3.3779,-3.3809,-3.384,-3.3821,-3.3849,-3.3846,-3.3846,-3.3693,-3.3675,-3.3864,-3.3864,-3.3864,-3.3863,-3.3863,-3.3863,-3.3653,-3.3721,-3.3707,-3.3778,-3.3777,-3.3823,-3.3835,-3.3849,-3.3856,-3.3909,-3.3937,-3.3929,-3.393,-3.3959,-3.3988,-3.3984,-3.3997,-3.4032,-3.4021,-3.3878,-3.3857,-3.3837,-3.382,-3.4036,-3.4036,-3.417,-3.4172,-3.4173]},{"header":{"parameterUnit":"m.s-1","parameterCategory":1,"la1":30.2991,"la2":30.254,"lo1":-89.0895,"lo2":-89.0444,"dy":0.0017,"dx":0.0017,"nx":28,"ny":28,"refTime":"2024-08-31T09:00:00:Z","depth":0,"parameterNumber":3,"parameterNumberName":"V-component_of_WINDS"},"data":[0,0,0,0,0,0,0,0,0,0,0,0,0,0,0,0,0,0,0,0,0,0,0,0,0,0,0,0,0,0,0,0,0,0,0,0,0,0,0,0,0,0,0,0,0,0,0,0,0,0,0,0,0,0,0,0,0,0,-1.2796,-1.2795,0,-1.2722,-1.2721,-1.272,-1.2723,-1.2724,-1.2725,-1.2726,-1.2644,-1.2641,-1.2638,0,0,0,0,0,0,0,0,0,0,0,0,0,-1.2933,-1.293,-1.2796,-1.2795,-1.2794,-1.2722,-1.2721,-1.272,-1.2723,-1.2724,-1.2726,-1.2727,-1.2645,-1.2642,-1.2638,0,0,0,0,0,0,0,0,0,0,0,0,0,-1.2867,-1.293,-1.2796,-1.2787,-1.2786,-1.2722,-1.2721,-1.272,-1.2723,-1.2724,-1.2726,-1.2728,-1.2647,-1.2642,-1.2637,-1.2576,0,0,-1.2623,-1.2621,0,0,0,0,0,0,0,0,-1.2871,-1.2862,-1.279,-1.2788,-1.2786,-1.2734,-1.2739,-1.2671,-1.2722,-1.2747,-1.2726,-1.2728,-1.2672,-1.2666,-1.2648,-1.2572,-1.2569,-1.2622,-1.2619,-1.2617,-1.2616,0,0,0,0,0,0,0,-1.2876,-1.2865,-1.2767,-1.2788,-1.2786,-1.2784,-1.2777,-1.2726,-1.2701,-1.2745,-1.2745,-1.2736,-1.2672,-1.2653,-1.2646,-1.2567,-1.2622,-1.2618,-1.2615,-1.2613,-1.2431,-1.2429,0,0,0,0,0,0,-1.2883,-1.2869,-1.2769,-1.2764,-1.2834,-1.2781,-1.2772,-1.2749,-1.2702,-1.2696,-1.2735,-1.2737,-1.266,-1.2652,-1.2643,-1.2564,-1.2617,-1.2613,-1.261,-1.2433,-1.2431,-1.2429,0,0,0,0,0,0,-1.2886,-1.2874,-1.2772,-1.2817,-1.2804,-1.2777,-1.275,-1.2746,-1.2727,-1.2695,-1.2689,-1.272,-1.2661,-1.265,-1.2592,-1.2561,-1.2611,-1.2607,-1.2435,-1.2432,-1.243,-1.2408,0,0,0,0,0,0,-1.289,-1.2875,-1.2854,-1.2816,-1.2801,-1.2724,-1.2748,-1.2744,-1.272,-1.2721,-1.268,-1.2674,-1.2661,-1.2599,-1.2587,-1.2556,-1.2603,-1.2438,-1.2434,-1.2431,-1.2411,-1.2405,-1.2399,0,0,0,0,0,-1.2895,-1.2851,-1.2853,-1.2841,-1.2774,-1.2723,-1.2714,-1.2701,-1.2718,-1.2694,-1.2672,-1.2675,-1.2567,-1.2593,-1.258,-1.2546,-1.244,-1.2435,-1.2431,-1.2414,-1.2406,-1.2399,0,0,0,0,0,0,-1.2884,-1.2846,-1.2848,-1.2791,-1.276,-1.2723,-1.2694,-1.2694,-1.2657,-1.266,-1.2644,-1.2635,-1.2575,-1.2555,-1.2585,-1.2482,-1.2505,-1.2498,-1.2497,-1.2489,-1.2483,-1.2488,-1.2599,0,0,0,0,0,-1.2875,-1.2839,-1.2807,-1.2759,-1.2744,-1.2721,-1.2698,-1.2691,-1.2658,-1.2645,-1.2619,-1.2585,-1.2542,-1.2515,-1.2475,-1.2409,-1.2397,-1.2379,-1.2373,-1.2368,-1.2361,-1.2319,-1.231,-1.2414,-1.2414,-1.2414,0,0,-1.2856,-1.2831,-1.2809,-1.2756,-1.2732,-1.2691,-1.271,-1.2668,-1.2636,-1.2638,-1.2581,-1.256,-1.252,-1.2457,-1.2428,-1.2438,-1.233,-1.2362,-1.2359,-1.2354,-1.2314,-1.2304,-1.2295,-1.2411,-1.2411,-1.2412,0,0,-1.28,-1.2779,-1.2735,-1.271,-1.2673,-1.2657,-1.2647,-1.2609,-1.2596,-1.2539,-1.2538,-1.2499,-1.2428,-1.2398,-1.2374,-1.2303,-1.2302,-1.229,-1.2257,-1.2216,-1.2208,-1.2201,-1.2171,-1.2161,-1.2283,-1.2283,-1.2283,0,-1.2781,-1.2722,-1.2712,-1.2668,-1.2643,-1.2643,-1.2596,-1.2572,-1.2522,-1.2503,-1.2517,-1.2424,-1.2398,-1.2325,-1.2307,-1.2289,-1.2273,-1.2294,-1.2211,-1.2203,-1.2196,-1.2167,-1.2156,-1.2282,-1.2282,-1.2282,-1.2282,0,-1.2697,-1.2656,-1.2625,-1.2577,-1.2549,-1.2504,-1.2483,-1.2455,-1.245,-1.2432,-1.2371,-1.2339,-1.229,-1.2273,-1.2268,-1.2197,-1.2205,-1.2215,-1.2237,-1.2184,-1.2157,-1.2146,-1.228,-1.228,-1.2281,-1.2281,0,0,-1.2633,-1.2579,-1.2568,-1.2544,-1.2502,-1.2468,-1.2421,-1.2374,-1.2348,-1.2313,-1.227,-1.2208,-1.2216,-1.2188,-1.2179,-1.2144,-1.2083,-1.2157,-1.2156,-1.2141,-1.1998,-1.1989,-1.1976,-1.2084,-1.2082,-1.208,-1.2,0,-1.257,-1.2488,-1.2476,-1.2402,-1.2361,-1.236,-1.2317,-1.2285,-1.2266,-1.2226,-1.2205,-1.2159,-1.2176,-1.2158,-1.2123,-1.2098,-1.2054,-1.2104,-1.2039,-1.2037,-1.2046,-1.1963,-1.1953,-1.1879,-1.199,-1.1988,-1.1987,0,-1.2486,-1.2448,-1.2371,-1.233,-1.2312,-1.2275,-1.2228,-1.2192,-1.2153,-1.2141,-1.2108,-1.2103,-1.2049,-1.2076,-1.1999,-1.2033,-1.2006,-1.1989,-1.1986,-1.1977,-1.2007,-1.1947,-1.1856,-1.1843,-1.1971,-1.1972,-1.1973,0,-1.2441,-1.2372,-1.2315,-1.2296,-1.2248,-1.222,-1.2199,-1.2162,-1.2133,-1.2092,-1.2072,-1.2025,-1.1998,-1.196,-1.1939,-1.1961,-1.1862,-1.1888,-1.1847,-1.1847,-1.1824,-1.1825,-1.1723,-1.1812,-1.1813,-1.1813,-1.1813,0,-1.237,-1.2321,-1.2294,-1.2259,-1.2203,-1.2188,-1.2132,-1.211,-1.2076,-1.2034,-1.203,-1.199,-1.1967,-1.1922,-1.1906,-1.1842,-1.1831,-1.1817,-1.1812,-1.1815,-1.1816,-1.1795,-1.1798,-1.181,-1.1811,-1.1811,-1.1812,0,-1.231,-1.2291,-1.2228,-1.2187,-1.2175,-1.2135,-1.2098,-1.2062,-1.2043,-1.1989,-1.1975,-1.1944,-1.1891,-1.1868,-1.1802,-1.1791,-1.1716,-1.1717,-1.1729,-1.1727,-1.1685,-1.1688,-1.1563,-1.1543,-1.1649,-1.1649,-1.1648,0,-1.2264,-1.2227,-1.2181,-1.2153,-1.2131,-1.2086,-1.2056,-1.2039,-1.2007,-1.1958,-1.1926,-1.1873,-1.183,-1.1743,-1.1713,-1.1661,-1.1658,-1.1618,-1.1651,-1.1653,-1.1652,-1.1653,-1.1647,-1.1611,-1.161,-1.1609,-1.1609,0,-1.2183,-1.2175,-1.2133,-1.2087,-1.2051,-1.2014,-1.1977,-1.1953,-1.1929,-1.1893,-1.1839,-1.1806,-1.1738,-1.1683,-1.1629,-1.1603,-1.1599,-1.1599,-1.1586,-1.1587,-1.1593,-1.1584,-1.1709,-1.1601,-1.1602,-1.1603,-1.1603,-1.1603,-1.2126,-1.2091,-1.2053,-1.2005,-1.1975,-1.194,-1.1902,-1.1878,-1.1833,-1.1777,-1.1769,-1.171,-1.1667,-1.1594,-1.1566,-1.1516,-1.1526,-1.1508,-1.1503,-1.1498,-1.1493,-1.1604,-1.1507,-1.1507,-1.1507,-1.1508,-1.1508,0,-1.2042,-1.2016,-1.1973,-1.1921,-1.1882,-1.1885,-1.1843,-1.1809,-1.1758,-1.1719,-1.1676,-1.1611,-1.1557,-1.1522,-1.1466,-1.1433,-1.143,-1.1418,-1.1419,-1.1411,-1.149,-1.1505,-1.1422,-1.1422,-1.1422,-1.1422,-1.1422,-1.1422,-1.1993,-1.1932,-1.1918,-1.184,-1.1815,-1.1758,-1.1732,-1.1698,-1.1667,-1.1595,-1.155,-1.1528,-1.1489,-1.143,-1.1379,-1.1369,-1.1347,-1.1334,-1.1325,-1.1398,-1.1407,-1.1415,-1.1429,-1.1331,-1.1331,-1.125,-1.1249,-1.1248]}]]